SCP
-0 0 0 0 0 -0 0 0 -0 -0 -0 0 0 0 0 0 0 0 0 0 0 0 0 -0 -0 -0 0 0 0 0 0 0 0 0 0 0 0 0 0 0 0 0 0
0 0 0 0 0 0 0 0 0 0 0 0 0 0 0 0 0 0 0 0 0 0 0 0 -0 0 0 0 0 0 0 0 0 0 0 0 0 0 0 0 0 0 0
0 0 0 0 0 0 0 0 0 0 0 0 -0 -0 -0 0 0 0 0 0 0 0 0 0 0 0 0 0 0 0 0 0 0 0 0 0 0 0 0 0 0 0 0
0 0 0 0 0 0 0 0 0 0 0 0 -0 -0 -0 -0 -0 0 0 0 0 0 0 0 0 0 0 0 0 0 0 0 0 0 0 0 0 0 0 0 0 0 0
0 0 0 0 0 0 0 0 0 0 0 0 -0 -0 -0 -0 -0 -0 -0 -0 -0 -0 -0 -0 -0 0 0 0 0 0 0 0 0 0 0 0 0 0 0 0 0 0 0
0 0 0 0 0 0 0 0 0 0 0 0 -0 -0 -0 -0 -0 -0 -0 -0 -0 -0 -0 -0 -0 -0 -0 0 0 0 0 0 0 0 0 0 0 0 0 0 0 0 0
0 0 0 0 0 0 0 0 0 0 0 0 -0 -0 -0 -0 0 0 -0 -0 -0 -0 -0 -0 -0 -0 -0 -0 -0 0 0 0 0 0 0 0 0 0 0 0 0 0 0
0 0 0 0 0 0 0 0 0 0 0 0 0 0 -0 -0 0 0 0 -0 -0 -0 -0 -0 -0 -0 -0 -0 -0 -0 -0 -0 -0 -0 -0 0 0 0 0 0 0 0 0
0 0 0 0 0 0 0 0 0 0 0 0 0 0 0 -0 0 0 0 -0 -0 -0 -0 -0 -0 -0 -0 -0 -0 -0 -0 -0 -0 -0 -0 0 0 0 0 0 0 0 0
0 0 0 0 0 0 0 0 0 0 0 0 0 0 0 0 0 0 0 0 -0 -0 -0 -0 -0 -0 -0 -0 -0 -0 -0 -0 -0 -0 -0 -0 0 0 0 0 0 0 0
0 0 0 0 0 0 0 0 0 0 0 0 0 0 0 0 0 0 0 0 0 -0 -0 -0 -0 -0 -0 -0 -0 -0 -0 -0 -0 -0 -0 -0 -0 0 0 0 0 0 0
0 0 0 0 0 0 0 0 0 0 0 0 0 0 0 0 0 0 0 0 0 -0 -0 -0 -0 -0 -0 0 -0 -0 -0 -0 -0 -0 -0 -0 -0 0 0 0 0 0 0
0 0 0 0 0 0 0 0 0 0 0 0 0 0 0 0 0 0 0 0 0 -0 -0 -0 -0 -0 -0 -0 -0 -0 -0 -0 -0 -0 -0 -0 0 0 0 0 0 0 0
0 0 0 0 0 0 0 0 0 0 0 0 0 0 0 0 0 0 0 0 0 0 0 0 0 -0 -0 0 0 -0 0 0 -0 -0 -0 0 0 0 0 0 0 0 0
0 0 0 0 0 0 0 0 0 0 0 0 0 0 0 0 0 0 0 0 0 0 0 0 0 0 -0 0 -0 0 0 0 0 -0 -0 -0 -0 0 0 0 0 0 0
0 0 0 0 0 0 0 0 0 0 0 0 0 0 0 0 0 0 0 0 0 0 0 0 0 0 0 -0 -0 0 0 0 0 -0 -0 -0 -0 -0 0 0 0 0 0
0 0 0 0 0 0 0 0 0 0 0 0 0 0 0 0 0 0 0 0 0 0 0 0 0 0 0 -0 -0 0 0 0 0 0 -0 -0 -0 0 0 0 0 -0 0
0 0 0 0 0 0 0 0 0 0 0 0 0 0 0 0 0 0 0 0 0 0 0 0 0 0 0 -0 -0 0 0 0 0 0 0 -0 -0 0 0 0 0 0 0
0 0 0 0 0 0 0 0 0 1 1 0 0 0 0 0 0 0 0 0 0 0 0 0 0 0 0 0 0 0 0 0 0 0 0 -0 -0 0 0 0 0 0 0
0 0 0 0 0 0 0 0 0 1 1 1 1 0 0 0 0 0 0 0 0 0 0 0 0 0 0 0 0 0 0 0 0 0 0 0 0 0 0 0 0 0 0
0 0 0 0 0 0 0 0 0 0 1 1 1 1 1 1 1 0 0 0 0 0 0 0 0 0 0 0 0 0 0 0 0 0 0 0 0 0 0 0 0 0 0
0 0 0 0 0 0 0 0 0 0 0 1 1 1 1 1 1 0 0 0 0 0 0 0 0 0 0 0 0 0 0 0 0 0 0 0 0 0 0 0 0 0 0
0 0 0 0 0 0 0 0 0 0 0 0 1 1 1 1 1 0 0 0 0 0 0 0 0 0 0 0 0 0 0 0 0 0 0 0 0 0 0 0 0 0 0
0 0 0 0 0 0 0 0 0 0 0 0 0 0 1 1 1 0 0 0 0 0 0 0 0 0 0 0 0 0 0 0 0 0 0 0 0 0 0 0 0 0 0
0 0 0 0 0 0 0 0 0 0 0 0 0 0 0 0 0 0 0 0 0 0 0 0 0 0 0 0 0 0 0 0 0 0 0 0 0 0 0 0 0 0 0
0 0 0 0 0 0 0 0 0 0 0 0 0 0 0 0 0 0 0 0 0 0 0 0 0 0 0 0 0 0 0 0 0 0 0 0 0 0 0 0 0 0 0
Wind_Speed
5 5 11 11 11 11 11 11 11 11 12 12 12 13 13 12 12 11 9 8 7 7 7 7 7 7 8 9 8 8 8 8 9 10 11 11 11 10 10 10 9 6 10
8 7 12 12 12 11 11 11 10 10 10 11 11 11 11 11 11 11 10 9 8 7 7 7 7 7 8 8 8 8 8 8 8 9 10 9 10 10 10 10 9 6 9
10 7 10 13 12 12 11 10 10 10 10 10 10 10 10 10 10 10 10 9 8 7 7 6 6 7 7 7 7 7 7 7 7 8 7 4 5 10 10 9 9 9 9
10 7 8 13 12 11 11 10 10 9 9 9 9 9 9 9 9 9 8 8 7 7 6 6 6 6 6 7 7 6 6 5 6 6 3 3 3 8 9 9 9 9 9
8 7 8 14 12 11 10 9 9 9 8 8 8 8 8 7 7 7 7 7 6 6 6 5 5 5 5 6 6 6 5 5 6 6 3 3 3 6 8 8 8 8 8
8 6 8 14 13 11 10 9 9 8 7 7 7 7 7 6 6 6 6 6 6 5 5 4 4 4 4 5 5 5 5 6 6 4 3 3 2 4 6 7 6 7 7
8 7 7 14 13 12 11 10 10 9 8 7 7 7 6 6 6 5 5 5 5 5 5 4 3 3 4 4 5 5 5 6 4 3 3 2 1 4 6 6 5 6 6
9 8 7 14 14 13 12 11 10 9 8 8 7 6 6 6 5 5 4 4 4 4 4 4 4 3 3 4 4 4 4 4 4 3 2 1 1 4 5 5 5 5 5
7 6 6 7 10 13 13 12 11 10 9 9 8 7 6 5 5 5 4 3 2 2 2 3 4 4 4 4 4 4 4 5 3 1 1 0 1 3 4 5 5 5 4
5 6 6 6 6 6 8 12 13 12 11 10 9 8 7 6 6 6 5 4 3 1 0 1 2 3 4 4 4 4 5 5 2 1 1 1 0 2 4 4 5 4 4
6 5 5 5 5 5 5 9 10 11 11 11 9 10 8 3 2 3 4 5 4 3 2 1 1 2 4 6 5 4 4 1 1 1 1 2 1 1 2 3 4 4 4
8 7 5 6 5 4 6 5 4 4 5 5 4 5 4 3 2 3 4 7 7 5 4 3 3 2 4 3 3 4 1 1 1 1 2 4 3 1 1 2 2 3 3
6 6 7 6 6 5 4 3 2 2 3 4 5 5 4 3 2 2 1 3 3 3 1 2 3 2 2 1 1 1 0 1 1 2 2 5 4 3 2 2 1 2 2
4 5 6 7 6 6 5 3 3 3 3 4 5 6 4 3 3 3 2 2 2 1 1 1 1 1 1 1 1 2 2 1 1 2 2 5 4 4 4 3 3 2 2
6 6 5 6 7 6 6 5 4 5 5 5 4 5 6 5 4 4 3 3 3 2 2 2 2 2 2 2 2 3 3 3 2 2 2 4 3 3 4 4 4 4 4
9 8 7 5 6 6 6 6 6 5 5 4 5 6 7 5 5 4 4 4 3 3 3 3 3 2 2 2 3 4 4 4 3 3 2 3 4 3 3 4 5 5 5
9 9 9 6 4 5 7 7 6 5 5 6 6 7 8 7 6 5 4 4 4 4 4 3 3 2 2 2 3 4 4 4 4 3 2 1 2 3 3 3 4 4 5
10 10 9 9 8 6 4 6 5 5 6 6 6 6 9 9 8 6 5 5 4 3 3 3 2 2 2 2 2 2 2 3 4 3 2 2 2 2 2 3 2 3 4
10 10 10 9 9 8 6 5 6 6 7 6 6 6 8 10 9 7 6 5 4 3 3 3 3 3 3 3 3 2 2 2 3 3 4 4 3 3 2 2 2 2 3
9 9 9 9 9 9 6 4 3 5 6 6 7 7 8 8 9 8 6 5 4 3 3 3 3 3 2 3 2 1 1 1 2 3 4 3 3 4 3 2 1 1 3
10 10 9 9 9 8 5 4 3 3 4 5 7 8 8 8 8 7 6 5 4 4 4 4 3 3 2 2 2 1 1 1 2 3 3 3 4 4 3 3 2 1 1
10 10 9 9 9 8 6 5 4 4 4 4 5 6 8 8 8 7 7 5 5 4 3 4 3 2 2 2 3 2 1 2 2 1 2 3 4 3 4 4 3 3 2
10 10 9 9 9 8 8 6 5 3 3 2 3 4 7 8 9 8 8 7 6 6 5 5 4 5 3 2 2 4 4 4 2 2 2 2 2 3 3 3 4 4 3
10 8 8 8 8 8 8 6 7 4 4 4 3 3 4 5 6 7 7 8 7 6 6 5 5 4 4 3 2 1 2 3 3 1 2 1 1 3 3 3 4 4 4
9 8 7 7 7 7 7 7 6 5 4 3 2 2 2 3 4 5 6 7 7 6 7 7 7 6 5 4 4 2 2 1 2 2 2 2 1 1 2 3 3 3 4
8 7 6 6 6 7 7 7 7 7 6 4 3 1 0 1 1 3 4 4 5 5 7 7 7 8 7 6 4 4 4 3 3 3 3 2 2 2 2 2 3 4 4
Wind_Direction
168 168 162 151 147 140 134 128 125 123 123 123 123 123 125 125 124 123 122 122 121 123 127 130 134 135 127 120 118 114 109 101 93 86 84 85 89 93 94 96 97 91 95
149 157 157 152 149 145 141 137 133 129 128 128 128 128 129 128 128 128 126 122 117 115 118 126 130 130 127 122 120 115 108 104 97 88 82 82 89 93 96 99 101 99 99
142 149 152 152 151 149 148 145 141 138 135 132 129 129 130 130 129 129 127 124 121 117 116 121 129 131 129 127 122 115 109 108 105 98 84 57 81 93 94 97 101 102 103
142 143 149 154 154 154 155 152 150 147 142 137 133 130 127 126 124 124 123 122 120 118 117 118 127 132 130 124 118 112 105 108 113 103 78 51 67 94 94 95 98 101 104
143 142 158 158 159 161 163 161 159 154 150 146 141 137 131 127 123 121 119 117 114 112 112 113 120 125 126 121 113 107 101 101 105 98 83 63 53 95 97 96 97 100 104
147 148 166 163 166 168 171 172 169 164 161 157 153 151 144 139 133 126 122 117 110 104 100 101 113 119 116 113 105 96 93 96 91 82 74 63 48 96 102 99 97 97 99
154 159 174 170 173 175 177 179 175 173 173 172 169 167 162 154 145 135 126 117 110 99 87 76 81 101 103 97 95 90 91 102 91 83 77 64 60 109 108 104 97 94 94
162 167 177 179 180 183 184 185 181 182 184 185 183 182 177 172 166 156 142 125 113 97 81 66 56 68 82 85 90 90 95 105 98 91 84 60 118 105 104 107 101 93 93
169 173 185 185 186 189 191 192 190 189 192 192 192 193 191 192 192 189 176 161 140 108 78 61 50 51 60 71 81 89 96 96 97 87 74 26 100 96 97 103 104 97 95
177 187 195 196 191 191 196 200 198 197 197 198 200 202 206 209 213 215 204 200 203 211 232 45 43 44 48 52 61 79 92 92 103 83 33 287 155 103 97 100 102 106 105
195 201 206 208 206 200 201 209 205 205 204 203 204 207 209 213 228 237 223 220 232 247 263 288 352 22 45 39 34 57 84 90 136 182 231 267 244 135 103 98 104 109 115
209 207 207 210 212 208 212 213 210 207 204 200 191 202 193 185 209 224 238 235 240 248 264 278 290 8 53 43 21 37 65 94 192 225 243 259 261 255 149 114 110 116 121
227 222 213 212 212 209 216 213 206 205 202 199 194 192 182 181 204 221 217 253 263 266 286 333 354 34 53 36 356 350 314 211 243 249 262 269 273 272 238 197 164 142 139
279 250 234 214 211 214 215 221 211 206 207 206 199 189 179 183 198 208 211 218 226 227 228 235 254 278 273 258 267 276 270 254 240 237 260 273 280 278 257 229 212 196 182
346 315 275 231 215 212 211 219 218 215 214 211 203 196 190 193 201 206 215 215 217 211 216 228 242 259 263 255 249 237 242 242 234 227 266 284 283 277 269 249 228 215 209
2 351 332 286 237 217 214 217 219 216 215 207 207 204 200 201 201 203 217 221 218 209 210 216 232 251 265 256 253 237 229 223 222 221 236 296 294 278 275 267 252 231 217
356 356 356 344 322 254 229 224 223 217 211 213 214 206 204 203 202 203 213 224 222 204 202 208 227 233 258 250 243 231 215 208 203 211 225 260 294 286 269 268 276 264 237
355 354 354 357 351 327 279 240 229 221 217 220 215 208 207 207 203 202 211 226 220 193 188 198 208 224 242 234 222 215 202 195 203 207 217 238 252 266 279 275 276 282 260
349 348 348 350 349 339 317 268 233 220 219 222 216 213 210 208 205 203 212 223 213 195 193 210 197 194 212 214 205 196 199 205 209 213 222 233 240 243 247 276 274 269 265
341 342 343 344 345 338 326 301 256 230 225 218 214 214 209 206 203 201 208 213 203 201 202 197 204 197 203 194 182 151 212 234 214 218 224 226 236 240 233 242 263 279 264
343 344 341 342 341 341 335 328 303 264 241 227 222 212 203 200 199 199 206 202 192 203 212 195 182 195 197 139 110 68 329 283 232 231 223 221 232 232 225 226 221 228 271
338 338 337 337 334 334 327 311 286 278 267 242 227 212 200 194 193 198 199 196 186 192 199 183 171 170 181 162 145 134 239 313 281 234 227 225 231 222 225 225 215 219 228
333 333 331 329 328 328 327 318 308 289 283 270 230 215 209 196 189 186 189 181 178 176 181 179 180 179 183 195 174 153 161 212 265 298 266 244 231 219 228 225 223 220 219
323 321 320 324 325 329 331 328 324 311 293 283 274 247 218 203 194 185 181 174 170 167 171 179 183 184 177 191 201 180 160 156 162 272 309 300 262 227 231 232 231 224 215
318 320 320 323 329 333 336 337 331 323 307 297 290 254 214 191 186 181 179 176 174 174 177 180 184 188 188 189 183 167 153 138 159 170 232 288 313 272 240 232 235 233 220
327 326 324 330 338 344 347 350 348 347 345 346 353 358 87 122 148 166 175 183 183 181 185 190 191 193 192 190 188 180 172 170 184 181 193 215 244 289 289 254 237 236 227